EHI
3 2 2 1 0 0 0 0 0 0 1 2 3 3 3 3 3 2 1 0 0 0 0 0 0 0 0 0 0 0 1 2 3 3 3 3 2 1 0 0 0 0 0
3 2 1 1 0 0 0 0 0 0 1 2 3 3 3 3 2 1 0 0 0 0 0 0 0 0 0 0 0 0 1 2 3 3 2 2 2 1 0 0 0 0 0
3 1 0 0 1 1 1 0 0 0 1 2 3 3 3 1 1 0 0 0 0 0 0 0 0 0 0 0 0 0 1 2 2 1 1 1 1 0 0 0 0 0 0
4 2 1 1 2 2 2 1 0 0 0 1 2 2 2 1 0 0 0 0 0 0 0 0 0 0 0 0 0 0 0 1 1 0 0 0 0 0 0 0 0 0 0
6 5 3 2 2 3 2 1 0 0 0 0 1 1 1 0 0 0 0 0 0 0 0 0 0 0 0 0 1 1 1 1 1 1 1 1 0 0 0 0 0 0 0
6 5 4 3 3 1 1 1 0 0 0 0 0 0 0 0 0 0 0 0 0 0 0 0 0 0 0 0 1 1 1 2 3 3 3 3 2 1 0 0 0 0 0
5 4 3 4 3 1 0 0 0 0 0 0 0 0 0 0 0 0 0 0 0 0 0 0 0 0 0 0 0 0 1 2 3 3 3 4 3 1 0 0 0 0 0
6 6 4 3 2 1 0 0 0 0 0 0 0 0 0 0 0 0 0 0 0 0 0 0 0 0 0 0 0 1 1 2 3 2 2 3 3 1 0 0 0 0 0
5 7 6 2 1 0 0 0 0 0 0 0 0 0 0 0 1 1 1 1 0 0 0 0 0 0 0 0 0 2 3 3 3 1 0 1 1 0 0 0 0 0 0
3 5 5 3 2 2 1 1 1 0 0 0 0 0 1 1 2 2 2 2 1 0 0 0 0 0 1 1 2 4 5 4 2 1 0 1 1 0 0 0 0 0 0
1 2 2 3 4 4 3 2 2 1 0 1 1 1 2 3 3 3 3 4 2 0 0 0 1 1 2 3 5 7 7 4 2 1 2 4 4 1 0 0 0 0 0
4 3 3 3 4 4 4 4 3 1 1 2 3 3 3 3 3 3 4 6 4 1 0 0 1 2 2 2 5 8 6 2 2 3 6 9 8 3 0 0 0 0 0
6 7 7 6 5 4 4 4 3 1 1 3 5 4 3 3 3 3 5 6 4 1 0 1 2 2 1 1 2 4 4 2 1 3 7 13 12 7 4 2 1 0 1
6 8 11 12 12 10 6 3 2 2 3 5 7 7 5 4 3 4 5 5 3 2 1 2 3 3 2 1 0 2 3 2 2 3 10 17 17 13 9 6 3 2 2
9 11 16 19 19 15 9 4 1 2 3 4 8 9 7 5 4 4 5 6 6 4 3 4 5 5 4 3 2 1 2 2 3 5 12 20 22 19 15 11 8 6 5
17 19 22 24 23 17 9 3 1 2 1 3 8 9 7 6 5 5 6 7 7 5 5 6 7 6 5 5 5 3 2 2 3 5 10 19 25 24 20 16 14 12 11
30 29 27 25 26 21 11 4 2 2 1 4 9 11 9 8 9 9 7 8 8 7 6 7 7 5 4 6 7 6 4 3 3 3 7 16 23 25 24 21 19 18 17
42 41 32 26 28 27 19 10 5 4 4 7 13 15 13 12 14 14 10 10 10 9 9 7 5 4 4 5 6 6 6 6 7 6 8 14 22 26 27 26 25 24 22
51 48 38 31 31 31 26 19 14 11 9 10 15 20 19 17 18 17 13 12 12 11 9 7 5 5 5 5 4 4 7 12 14 13 12 16 24 31 32 30 30 29 28
57 54 47 40 37 35 30 27 25 23 19 16 19 26 26 22 21 19 16 16 16 14 10 7 5 5 5 5 3 3 7 13 18 19 16 17 25 33 35 34 34 32 31
65 63 56 49 45 40 34 31 31 28 25 23 27 33 34 30 27 24 21 23 24 21 16 10 7 6 4 4 4 4 6 11 16 18 17 18 21 27 32 36 39 38 35
75 71 64 58 54 48 39 32 28 26 25 27 36 41 39 36 34 31 29 28 30 30 26 19 15 11 6 3 4 4 4 6 8 10 13 16 18 22 27 31 39 43 42
78 75 69 66 63 57 48 38 31 30 30 33 42 46 44 41 39 37 35 32 30 31 30 27 24 20 12 4 3 4 2 2 2 3 6 12 17 20 20 21 29 38 42
77 77 76 74 71 65 57 47 40 39 39 39 45 49 49 45 41 39 39 37 33 31 31 29 27 23 16 6 3 3 4 3 3 2 3 7 12 16 15 12 17 27 33
75 78 81 82 79 71 61 53 47 42 40 42 47 50 49 48 45 42 42 41 37 33 32 31 26 21 15 9 4 4 5 6 6 5 5 5 8 11 12 11 14 20 24
74 77 82 85 83 74 62 54 49 43 39 41 46 49 48 48 48 45 43 43 39 33 33 33 28 20 14 10 6 5 5 6 7 7 6 6 6 9 13 15 17 19 18
Wind_Speed
10 11 12 12 12 11 11 11 11 11 11 12 12 12 13 13 14 14 13 13 13 12 11 10 10 11 11 11 11 12 12 12 12 13 13 13 12 11 10 10 11 11 13
13 12 13 12 12 11 11 10 11 10 10 11 11 11 12 12 12 12 12 12 12 11 11 10 10 10 10 10 11 11 11 11 11 11 12 12 11 10 9 9 11 10 13
15 13 13 12 12 11 10 10 10 10 10 10 11 11 11 11 11 11 11 11 10 10 10 10 10 9 10 10 10 10 10 9 9 10 10 8 9 10 10 12 13 12 12
15 13 12 12 12 11 10 9 10 10 10 10 10 10 10 10 10 10 10 10 10 10 9 9 9 9 9 9 9 8 8 7 7 6 4 6 7 10 11 11 11 10 10
15 14 13 13 12 11 11 10 10 10 10 10 10 10 10 10 10 9 9 9 9 9 9 9 9 9 9 8 7 6 6 5 5 4 2 6 7 10 10 10 9 9 9
16 15 13 13 12 12 11 10 10 10 10 10 9 9 9 9 9 9 9 8 9 9 8 8 9 9 8 7 6 5 4 3 4 2 4 7 7 9 10 9 8 8 9
15 15 13 13 12 12 11 11 10 10 9 9 9 9 9 8 8 8 8 8 8 8 8 8 8 8 7 6 5 4 3 4 5 2 5 7 8 10 10 8 8 8 8
15 15 13 13 13 12 11 10 10 9 9 9 8 8 8 7 7 7 7 7 7 7 7 8 8 7 6 5 4 3 3 6 3 2 6 8 10 10 10 8 7 7 7
13 15 13 12 11 11 11 10 9 9 9 8 8 8 7 7 6 7 6 6 7 7 7 7 7 7 6 5 4 4 5 6 5 1 6 7 10 10 10 8 7 7 7
10 11 12 13 12 10 10 10 10 9 8 8 8 8 7 6 6 7 7 7 7 7 7 7 7 6 6 5 5 5 6 6 5 2 4 8 11 10 9 8 7 7 7
8 8 9 10 11 10 10 11 10 9 8 8 7 8 7 4 5 6 7 8 7 7 7 7 7 7 6 6 7 7 6 4 3 2 5 11 11 10 9 8 8 7 7
9 9 7 8 8 8 8 8 7 7 7 5 5 6 4 3 2 5 8 8 8 7 7 8 8 7 6 4 7 8 4 5 3 2 6 14 12 11 10 9 8 8 8
9 8 8 7 6 6 5 5 3 3 4 5 5 4 3 2 2 3 3 4 5 7 5 6 7 5 5 4 3 5 5 4 1 2 7 13 12 11 10 9 9 9 9
9 9 9 8 5 4 4 4 4 3 3 4 4 4 3 2 2 2 2 3 3 3 3 4 3 4 3 3 3 3 3 3 1 3 6 12 12 11 11 10 10 10 10
9 8 8 7 6 4 2 1 3 3 3 4 4 4 3 3 2 2 2 2 3 2 3 3 3 3 2 3 3 4 3 3 2 3 5 12 12 11 11 11 11 11 11
8 8 8 8 7 5 3 2 2 3 3 3 4 5 4 2 2 2 1 1 1 2 2 2 2 2 2 3 3 3 3 3 3 3 5 8 12 12 12 12 12 12 12
8 7 8 8 8 6 5 5 3 3 4 3 3 4 4 3 3 2 2 2 2 2 2 2 3 3 3 3 4 4 4 3 3 3 4 5 7 11 13 13 13 12 13
9 8 7 7 9 7 4 3 2 2 3 3 3 3 4 4 4 3 3 2 3 2 2 2 2 2 2 2 2 3 3 3 4 4 4 5 5 7 11 15 14 13 14
9 8 7 4 7 8 6 4 3 2 2 3 3 3 4 5 5 4 3 2 3 3 2 3 2 2 2 2 3 4 4 4 4 6 6 6 6 6 6 11 15 14 15
9 8 7 6 5 5 5 4 3 3 3 3 3 3 4 3 4 3 3 3 3 2 2 2 2 2 2 3 4 3 3 4 4 5 6 6 6 7 7 7 9 11 16
10 9 8 7 7 5 4 4 4 4 3 3 4 5 5 4 4 3 2 2 3 2 3 3 2 3 3 3 2 3 4 5 5 5 5 4 5 6 6 7 7 7 8
12 10 9 8 8 7 5 3 3 3 3 3 3 4 5 5 5 5 4 3 3 2 3 2 2 2 3 2 2 2 2 2 3 5 3 4 4 3 4 6 6 7 6
13 12 10 9 9 8 6 4 3 3 2 2 3 3 4 5 5 4 4 4 3 3 3 3 3 4 3 2 2 2 1 2 2 2 3 3 3 3 3 4 6 7 8
14 13 10 10 8 8 7 6 6 4 4 4 3 3 4 5 5 5 5 4 3 2 3 3 3 3 3 3 2 2 3 2 1 2 2 2 2 3 3 4 3 3 4
14 13 11 10 9 8 8 7 6 5 4 3 3 3 3 4 5 5 4 4 3 3 3 3 1 2 2 3 2 2 2 2 3 2 3 3 2 2 3 3 3 2 3
13 13 13 11 10 9 8 7 6 5 4 3 3 3 4 3 4 5 5 4 4 3 3 2 2 3 3 3 2 2 2 2 2 2 3 3 3 3 3 2 2 2 1
Wind_Direction
104 103 100 95 92 89 95 95 95 94 94 97 97 97 97 98 99 101 102 102 103 103 104 103 103 102 102 101 102 102 100 99 98 100 101 101 101 102 103 107 108 100 104
111 109 104 99 97 96 99 100 101 102 103 102 102 102 102 103 104 105 106 106 106 106 106 106 105 105 106 107 107 109 110 112 115 116 114 109 106 103 98 92 94 107 109
114 115 111 106 104 102 103 106 108 107 107 107 107 108 108 108 108 108 108 108 109 110 109 108 107 107 108 112 115 117 121 126 132 135 132 122 112 104 98 95 100 110 112
117 116 111 112 108 106 105 108 112 108 105 104 106 108 108 109 110 110 111 111 112 112 111 110 111 113 114 117 122 128 135 144 154 164 159 130 117 111 108 107 110 113 114
109 110 113 116 112 110 108 106 107 106 107 105 105 105 105 107 111 114 114 114 114 113 112 111 115 116 117 121 128 142 155 171 187 207 136 102 103 121 118 117 116 118 118
116 115 116 118 117 115 112 109 108 106 107 107 106 105 105 107 111 115 118 118 117 116 115 114 119 120 122 127 136 154 177 211 235 220 129 116 118 130 129 127 126 127 124
118 117 122 122 122 121 118 115 113 111 110 109 108 108 107 109 111 113 119 120 120 122 123 124 125 126 128 135 147 171 217 254 252 209 123 116 128 137 137 136 134 132 132
122 120 125 127 127 125 123 122 121 121 120 119 117 116 115 116 115 117 124 127 130 131 130 131 133 135 139 149 168 206 252 273 277 156 117 119 133 140 141 142 143 142 142
125 129 137 138 135 132 130 129 126 126 128 128 127 128 128 128 129 132 137 140 142 141 141 141 144 146 152 166 190 232 263 276 285 180 123 124 139 144 147 150 152 153 151
125 131 143 146 144 148 142 140 135 134 137 138 139 142 143 148 154 155 152 153 153 153 154 154 158 160 170 186 211 238 264 278 258 189 120 133 145 150 155 160 164 164 164
127 131 138 140 149 150 146 147 150 148 150 154 156 162 168 179 169 169 154 156 163 166 165 167 171 177 187 203 218 235 253 254 248 144 120 143 155 159 164 169 174 177 177
142 137 132 136 143 145 142 146 160 160 158 178 160 172 185 177 153 145 145 160 170 174 176 182 187 192 203 208 214 223 238 238 231 151 140 153 161 167 172 178 185 187 186
144 141 142 138 134 134 133 150 149 144 156 169 164 170 163 151 146 139 150 162 176 182 187 182 195 208 209 208 206 206 219 233 206 135 147 160 165 172 178 186 193 196 196
142 147 141 130 123 114 120 132 149 155 158 155 153 173 156 153 151 145 153 166 177 182 182 188 198 213 216 211 217 225 230 228 192 126 155 167 173 179 185 192 197 200 202
142 141 128 121 118 115 111 171 154 154 160 155 157 173 166 167 162 165 171 170 187 182 182 190 202 204 210 227 228 223 234 243 216 159 158 177 182 186 192 198 202 204 206
141 136 130 136 140 145 164 193 183 165 158 158 159 163 170 166 148 159 168 162 193 188 177 179 197 198 221 232 237 238 240 235 212 178 167 184 191 194 200 205 208 209 210
147 143 144 152 150 165 177 192 191 186 167 163 155 161 175 174 155 166 197 192 198 189 190 197 209 210 218 226 227 234 237 234 225 208 186 182 193 204 208 211 214 214 214
152 152 169 169 157 166 183 198 199 196 155 152 174 170 180 177 174 183 200 202 193 205 200 196 211 223 232 238 234 240 234 222 220 218 210 202 197 199 208 213 214 215 216
154 158 168 164 158 169 176 188 202 186 166 174 179 174 180 185 182 187 196 192 196 205 206 222 189 207 226 239 245 232 230 221 216 223 219 218 208 195 191 204 212 215 218
159 162 166 170 170 172 174 184 195 197 185 187 183 175 183 191 185 192 198 196 213 208 208 223 198 213 226 234 258 257 237 229 219 222 221 221 211 206 203 196 201 216 221
167 167 172 180 173 181 186 190 189 194 199 190 188 178 186 191 190 202 222 195 221 218 209 219 221 230 236 231 251 274 261 239 223 222 222 226 219 211 204 191 191 200 210
172 171 174 180 176 185 189 192 198 198 207 191 188 170 180 186 194 207 203 215 218 221 221 228 230 248 255 226 222 268 284 287 258 235 214 223 231 221 218 210 197 198 203
175 177 183 182 179 187 185 187 201 190 219 205 181 180 188 189 195 213 196 218 224 221 209 216 226 235 250 256 223 226 259 272 299 280 246 225 212 215 227 221 212 206 206
179 179 177 173 176 180 186 199 198 198 203 206 190 183 186 189 200 206 203 210 217 229 213 221 213 230 240 256 259 235 243 261 277 301 298 276 236 226 235 253 242 217 202
181 176 173 170 176 178 188 200 207 211 213 206 186 177 189 195 205 208 202 204 208 223 226 223 211 237 250 250 258 260 255 250 237 246 278 290 292 256 231 236 243 227 204
177 174 171 170 175 180 189 197 202 213 220 218 193 179 193 197 203 202 200 196 206 220 217 210 219 232 239 251 262 269 264 255 243 238 259 276 275 271 245 232 232 218 191